STARLINK-11228, 60398

Orbit data source: Space-Track

STARLINK-11228, 60398 is a payload satellite owned by SpaceX/Seattle (US) in LEO that was launched on Sat, 10 Aug 2024 UTC via an FALCON 9 launch vehicle from the Air Force Eastern Test Range (AFETR). Payloads include a variety of satellites, spacecraft, and rockets equipped with specific instruments for various scientific and technological missions. These include communications satellites like Starlink; space stations such as the ISS; scientific satellites like the Hubble; Earth observation satellites from companies like Planet Labs, Umbra, and HawkEye 360; GPS; miniature CubeSats for education and research; and military/defense satellites.

Loading next visibility...
STARLINK-11228 details
Identifier
60398, 2024-141A
Orbit
LEO
Last TLE update8 hours ago
Origin
Flag of USSpaceX/Seattle (US)
ManufacturerSpaceX/Seattle
MissionOperational spacecraft
Bus & MotorSTARLINK V2M, Unknown motor
Mass730 kg wet, ~700 kg dry
Launch date (UTC)
2024-08-10 (5 months ago)
Launch vehicle
FALCON 9
Launch site
Air Force Eastern Test Range (AFETR)
Object type
Payload
Rocket body
Debris
Shape & HBRUnknown
Radar Cross SectionLarge (>1 m²)

Expand to show TLE details & history

TLE from 8 hours ago
0 STARLINK-11228
1 60398U 24141A   25014.94254795 -.00000974  00000-0 -31787-5 0  9998
2 60398  53.1595 350.5542 0001406 100.9682 259.1494 15.69712863 25927
Epoch: 2025-01-14T22:37Z
Definitive object data (Epoch: 2025-01-14T22:37:16.142Z)
Latitude-0.00005°
Longitude-103.4051°
Altitude360.812 km
Speed7.694 km/s
True Right ascension23h 22m 12s
True Declination0° 00' 00"
Sunlit
Object was in daylight at TLE epoch
Visualization TLE readout
Latitude24.61221°
Longitude54.94088°
Altitude360.01 km
Speed7.697 km/s
Apparent Right ascension13h 27m 44s
Apparent Declination-19° 43' 06"
Sunlit
Object is in full shadow
Visualization observer readout
Local Sidereal Time07:32:59
Azimuth106.154° ESE
Elevation-11.536°
Doppler factor1
Orbital elements
Apogee altitude360.927 km
Perigee altitude359.032 km
Semi-major axis6,738.116 km
Eccentricity0.0001406
Inclination53.1595°
RAAN350.5542°
Arg. of periapsis100.9682°
True anomaly259.13358°
Mean anomaly259.1494°
Eccentric anomaly259.14149°
Mean motion3.92406 °/min
BSTAR-0.0000031787
Orbital period91.74 mins
Loading maneuver chart data...
Loading historical data...
Loading historical data...
Loading historical data...
Loading historical data...
Loading historical data...
Loading historical data...
Loading historical data...

STARLINK-11228 Visibility forecast

Observer location: undefined°, undefined

Span
Click to sort rows by Start time (UTC) header in descending order
Start Az.
Max El. time (UTC)
Max El. Az.
Max El.
End time (UTC)
End Az.
5 mins2025-01-15 08:17:31.920Z300.135° NW2025-01-15 08:20:31.920Z210.321° SW36.868°2025-01-15 08:22:31.920Z151.416° SSE
4 mins2025-01-16 00:47:31.920Z224.642° SW2025-01-16 00:49:31.920Z74.479° E43.339°2025-01-16 00:51:31.920Z52.328° ENE
|